User: anonymous
Location: Unspecified
(0.0000°N, 0.0000°E)
Time: 14:13:43
(UTC+02:00)
Language:

Centaur AC-64 - Orbit

View from above orbital plane
View from above orbital plane
View from above satellite
View from above satellite

Ground track
Ground track

The orbit data is extracted from the following two-line orbital elements,

1 15874U 85055B   14264.43728703  .00003874  00000-0  18500-2 0  5544
2 15874 023.2885 302.1352 6610615 281.4470 088.2341 03.13365418298719
Epoch (UTC): 21 September 2014 10:29:41
Eccentricity: 0.6610615
inclination: 23.2885°
perigee height: 307 km
apogee height: 26387 km
right ascension of ascending node: 302.1352°
argument of perigee: 281.4470°
revolutions per day: 3.13365418
mean anomaly at epoch: 88.2341°
orbit number at epoch: 29871

The dashed part of the orbit path shows where the satellite is in the earth's shadow,  

DLR